Regional Weather Roundup
Issued by NWS

Home | Current Version | Previous Version | Graphics & Text | Print | Product List | Glossary On
Versions: 1 2 3 4 5 6 7 8 9 10 11 12 13 14 15 16 17 18 19 20 21 22 23 24 25 26 27 28 29 30 31 32 33 34 35 36 37 38 39 40 41 42 43 44 45 46 47 48 49 50
000
ASUS45 KTFX 170904
RWRMT
MONTANA HOURLY WEATHER ROUNDUP
NATIONAL WEATHER SERVICE GREAT FALLS MT
304 AM MDT THU APR 17 2014

NOTE: "FAIR" INDICATES FEW OR NO CLOUDS BELOW 12000 FEET WITH NO
SIGNIFICANT WEATHER AND/OR OBSTRUCTIONS TO VISIBILITY.

* THESE STATIONS ARE NOT UNDER NWS QUALITY CONTROL. THEY DO NOT
   REPORT WEATHER SUCH AS PRECIPITATION OR FOG.

MTZ001>007-043-171000-
WEST OF THE DIVIDE
CITY           SKY/WX    TMP DP  RH WIND       PRES   REMARKS
KALISPELL      CLOUDY    43  34  71 S7        29.93F
MISSOULA       CLOUDY    43  34  71 CALM      29.97F
BUTTE          CLOUDY    36  23  59 CALM      29.98S
MULLAN PASS    LGT SNOW  30  30 100 VRB5      29.92F VSB M1/4 WCI  25
* ESSEX        N/A       35  33  92 N/A        N/A
* LINCOLN      N/A       34  29  82 SW1        N/A
* LOOKOUT PASS N/A       34  33  96 S1         N/A
* POLSON       N/A       39  33  79 SE1        N/A
* SEELEY LAKE  N/A       33  31  92 NE2        N/A
* THOMP F APT  MOCLDY    30  11  45 NE1G9      N/A
$$

MTZ008-052>055-171000-
SOUTHWEST MONTANA
CITY           SKY/WX    TMP DP  RH WIND       PRES   REMARKS
BOZEMAN        CLOUDY    34  28  79 SE7       29.98F WCI  28
DILLON         CLOUDY    36  19  50 S7        29.97F WCI  30
W YELLOWSTONE  N/A       25  18  75 N/A        N/A
* THREE FORKS  CLOUDY    34  27  76 N/A        N/A
* BOULDER HILL N/A       35  21  57 SW7        N/A   WCI  29
* MONIDA PASS  N/A       26  15  63 W4         N/A
* RAYNOLDS PAS N/A       27  12  53 S4         N/A
* WHITEHALL    N/A       35  22  59 NW3G8      N/A
* WISE RIVER   N/A       33  24  70 W3         N/A
$$

MTZ009>010-012-014-046-048-049-054-171000-
EAST SLOPES AND CENTRAL MONTANA
CITY           SKY/WX    TMP DP  RH WIND       PRES   REMARKS
CUT BANK       FOG       28  27  96 SE5       29.88F WCI  22
GREAT FALLS    MOCLDY    36  28  73 S10       29.91F WCI  29
HELENA         CLOUDY    37  28  70 CALM      29.96F
MALMSTROM AFB  PTCLDY    36  28  73 S13       29.89F WCI  27
* CONRAD       PTCLDY    28  27  96 N/A        N/A
* DEARBORN     N/A       38  29  70 SW4        N/A
* EAST GLACIER N/A       35  30  82 W20G26     N/A   WCI  24
* MONARCH      N/A       30  23  75 S8         N/A   WCI  22
* PENDROY      N/A       31  31 100 SW3        N/A
* ROGERS PASS  N/A       35  26  70 SE12G19    N/A   WCI  27
* SAINT MARY   N/A       36  31  82 S6G12      N/A   WCI  31
* SWEET GRASS  N/A       31  31 100 S17        N/A   WCI  20
$$

MTZ011-013-016-021-035-040-045-047-050-051-171000-
NORTH CENTRAL MONTANA
CITY           SKY/WX    TMP DP  RH WIND       PRES   REMARKS
HAVRE          CLOUDY    30  25  82 E14       29.95F WCI  19
LEWISTOWN      CLOUDY    30  30 100 E8        29.96F WCI  22
* CHESTER      N/A       32  26  79 SE9G14     N/A   WCI  24
* DENTON       N/A       35  33  92 S13        N/A   WCI  26
* GEYSER       N/A       26  25  96 S7         N/A   WCI  18
* JUDITH GAP   N/A       32  31  96 SE11       N/A   WCI  23
* LOMA         N/A       36  30  79 E12        N/A   WCI  28
$$

MTZ017>020-022>027-061-062-171000-
NORTHEAST MONTANA
CITY           SKY/WX    TMP DP  RH WIND       PRES   REMARKS
GLASGOW        PTCLDY    25  19  78 E14       30.13F WCI  13
GLENDIVE       CLOUDY    28  21  75 E9        30.17F WCI  19
JORDAN         PTCLDY    30  23  75 E9        30.09F WCI  22
SIDNEY         CLOUDY    28  21  75 SE6       30.22S WCI  21
WOLF POINT     CLOUDY    30  19  64 E8        30.19F WCI  22
* BEAVER HILL  N/A       24  19  81 E10        N/A   WCI  14
* CIRCLE       N/A       28  24  85 E8         N/A   WCI  20
* LINDSAY DVD  N/A       24  22  92 E9         N/A   WCI  14
* NAVAJO       N/A       24  21  88 SE8        N/A   WCI  15
* SACO         N/A       26  19  75 E19G25     N/A   WCI  12
$$

MTZ028>042-056>058-171000-
SOUTHCENTRAL AND SOUTHEAST MONTANA
CITY           SKY/WX    TMP DP  RH WIND       PRES   REMARKS
BAKER          LGT SNOW  28  25  89 SE16      30.14F WCI  16
BILLINGS       CLOUDY    34  30  85 N6        30.02F WCI  29
LIVINGSTON     CLOUDY    36  30  79 E6        29.99S WCI  31
MILES CITY     MOCLDY    30  27  89 E6        30.10F WCI  24
* LAUREL APT   CLOUDY    34  21  59 N7         N/A   WCI  28
* ROUNDUP APT  PTCLDY    34  28  79 N/A        N/A
* HYSHAM       N/A       32  25  75 E6         N/A   WCI  26
* LAME DEER    N/A       28  26  92 S3         N/A
* REED POINT   N/A       34  33  96 E1         N/A
* ROSCOE HILL  N/A       31  25  78 W1         N/A
$$

REGIONAL REPORTS...DAKOTAS
CITY           SKY/WX    TMP DP  RH WIND       PRES   REMARKS
WILLISTON      CLEAR    N/A N/A N/A N/A       30.24F
DICKINSON      CLOUDY    27  21  78 E7        30.18S WCI  19
CROSBY         CLOUDY    23  19  85 E9        30.27S WCI  13
TIOGA          CLOUDY    23  19  85 E9        30.27F WCI  13
WATFORD CITY   CLOUDY    27  19  72 SE12      30.21S WCI  16
BISMARCK       CLOUDY    27  18  69 E9        30.29S WCI  18
GRAND FORKS    CLEAR     23  19  85 N8        30.28S WCI  14
FARGO          CLEAR     25  18  75 N10       30.28R WCI  15
BUFFALO SD     MOCLDY    28  25  89 SE8       30.08F WCI  20
RAPID CITY     CLOUDY    28  25  89 S9        30.16F WCI  19
$$

REGIONAL REPORTS...WYOMING/IDAHO/WASHINGTON
CITY           SKY/WX    TMP DP  RH WIND       PRES   REMARKS
GILLETTE       PTCLDY    32  28  85 S12       30.04F WCI  23
SHERIDAN       CLOUDY    32  30  92 NW6       30.02S WCI  26
CODY           PTCLDY    28  25  89 S3        30.00F
YELLOWSTONE LA PTCLDY    23  16  74 CALM      30.03S
SALMON         MOCLDY    34  21  59 CALM      29.99F
MULLAN PASS    LGT SNOW  30  30 100 VRB5      29.92S VSB M1/4 WCI  25
SPOKANE        LGT RAIN  45  39  80 SE9       29.91F
$$

REGIONAL REPORTS...ALBERTA
CITY           SKY/WX    TMP DP  RH WIND       PRES   REMARKS
LETHBRIDGE     FOG       32  32 100 W6        29.86F VSB 1/4  WCI  26
EDMONTON       LGT SNOW  28  25  89 SE16      29.91F WCI  16
$$

REGIONAL REPORTS...SASKATCHEWAN
CITY           SKY/WX    TMP DP  RH WIND       PRES   REMARKS
SWIFT CURRENT  CLOUDY    25  19  78 SE18G25   30.05F WCI  11

$$




USA.gov is the U.S. government's official web portal to all federal, state and local government web resources and services.